TimeCST,TemperatureF,Dew PointF,Humidity,Sea Level PressureIn,VisibilityMPH,Wind Direction,Wind SpeedMPH,Gust SpeedMPH,PrecipitationIn,Events,Conditions,WindDirDegrees,DateUTC
12:13 AM,-0.4,-11.2,60,29.28,5.0,NW,18.4,29.9,N/A,,Haze,310,2014-01-25 06:13:00
12:33 AM,-0.4,-11.2,60,29.29,7.0,NW,15.0,24.2,N/A,,Scattered Clouds,310,2014-01-25 06:33:00
12:53 AM,-2.2,-11.2,66,29.30,7.0,NW,16.1,23.0,N/A,,Scattered Clouds,310,2014-01-25 06:53:00
1:14 AM,-2.2,-11.2,66,29.31,2.5,NW,20.7,33.4,N/A,Snow,Light Snow,310,2014-01-25 07:14:00
1:33 AM,-2.2,-14.8,55,29.32,4.0,NW,16.1,29.9,N/A,Snow,Light Snow,310,2014-01-25 07:33:00
1:54 AM,-4.0,-14.8,60,29.33,5.0,NW,15.0,29.9,N/A,,Haze,310,2014-01-25 07:54:00
2:14 AM,-5.8,-14.8,65,29.35,10.0,NW,12.7,21.9,N/A,,Scattered Clouds,310,2014-01-25 08:14:00
2:33 AM,-5.8,-14.8,65,29.36,7.0,WNW,16.1,24.2,N/A,,Scattered Clouds,300,2014-01-25 08:33:00
2:53 AM,-5.8,-14.8,65,29.37,2.0,WNW,18.4,28.8,N/A,Snow,Light Snow,290,2014-01-25 08:53:00
3:13 AM,-5.8,-16.6,60,29.37,4.0,WNW,16.1,28.8,N/A,,Haze,300,2014-01-25 09:13:00
3:34 AM,-5.8,-14.8,65,29.39,4.0,WNW,9.2,19.6,N/A,,Haze,300,2014-01-25 09:34:00
3:53 AM,-5.8,-14.8,65,29.39,3.0,WNW,9.2,27.6,N/A,,Haze,300,2014-01-25 09:53:00
4:13 AM,-5.8,-16.6,60,29.40,7.0,WNW,15.0,25.3,N/A,,Overcast,300,2014-01-25 10:13:00
4:34 AM,-7.6,-16.6,65,29.40,7.0,NW,13.8,25.3,N/A,,Scattered Clouds,310,2014-01-25 10:34:00
4:53 AM,-7.6,-16.6,65,29.40,3.0,NW,15.0,25.3,N/A,Snow,Light Snow,310,2014-01-25 10:53:00
5:13 AM,-7.6,-16.6,65,29.41,2.5,NW,16.1,27.6,N/A,,Haze,310,2014-01-25 11:13:00
5:34 AM,-7.6,-18.4,59,29.43,7.0,WNW,15.0,26.5,N/A,,Scattered Clouds,300,2014-01-25 11:34:00
5:54 AM,-7.6,-18.4,59,29.43,5.0,WNW,19.6,28.8,N/A,,Haze,300,2014-01-25 11:54:00
6:13 AM,-7.6,-18.4,59,29.44,7.0,NW,12.7,24.2,N/A,,Scattered Clouds,310,2014-01-25 12:13:00
6:33 AM,-9.4,-18.4,65,29.45,2.5,NW,10.4,23.0,N/A,,Haze,310,2014-01-25 12:33:00
6:54 AM,-9.4,-18.4,65,29.46,3.0,NW,10.4,20.7,N/A,,Haze,320,2014-01-25 12:54:00
7:13 AM,-9.4,-18.4,65,29.47,3.0,NW,9.2,-,N/A,,Haze,310,2014-01-25 13:13:00
7:33 AM,-9.4,-18.4,65,29.48,1.2,WNW,4.6,-,N/A,Snow,Light Snow,300,2014-01-25 13:33:00
7:54 AM,-9.4,-20.2,59,29.49,4.0,NW,18.4,23.0,N/A,,Haze,310,2014-01-25 13:54:00
8:13 AM,-11.2,-22.0,59,29.50,5.0,NW,18.4,27.6,N/A,,Haze,320,2014-01-25 14:13:00
8:33 AM,-9.4,-22.0,54,29.51,7.0,NW,13.8,23.0,N/A,,Clear,310,2014-01-25 14:33:00
8:54 AM,-9.4,-23.8,49,29.51,7.0,WNW,11.5,24.2,N/A,,Clear,300,2014-01-25 14:54:00
9:13 AM,-9.4,-22.0,54,29.52,4.0,WNW,12.7,27.6,N/A,,Haze,300,2014-01-25 15:13:00
9:33 AM,-9.4,-23.8,49,29.52,5.0,NW,12.7,26.5,N/A,,Haze,310,2014-01-25 15:33:00
9:54 AM,-9.4,-22.0,54,29.53,4.0,NW,13.8,23.0,N/A,,Haze,310,2014-01-25 15:54:00
10:14 AM,-9.4,-23.8,49,29.53,7.0,WNW,11.5,26.5,N/A,,Scattered Clouds,290,2014-01-25 16:14:00
10:33 AM,-9.4,-23.8,49,29.54,5.0,WNW,16.1,25.3,N/A,,Haze,300,2014-01-25 16:33:00
10:54 AM,-9.4,-20.2,59,29.53,2.5,WNW,13.8,21.9,N/A,,Haze,300,2014-01-25 16:54:00
11:14 AM,-9.4,-23.8,49,29.54,2.0,WNW,15.0,29.9,N/A,,Haze,300,2014-01-25 17:14:00
11:33 AM,-9.4,-23.8,49,29.54,4.0,WNW,13.8,24.2,N/A,,Haze,300,2014-01-25 17:33:00
11:53 AM,-7.6,-23.8,45,29.53,7.0,WNW,12.7,21.9,N/A,,Scattered Clouds,290,2014-01-25 17:53:00
12:14 PM,-7.6,-23.8,45,29.52,10.0,WNW,12.7,23.0,N/A,,Scattered Clouds,290,2014-01-25 18:14:00
12:33 PM,-7.6,-20.2,54,29.52,3.0,WNW,9.2,24.2,N/A,,Haze,300,2014-01-25 18:33:00
12:53 PM,-7.6,-22.0,50,29.52,7.0,WNW,9.2,24.2,N/A,,Clear,300,2014-01-25 18:53:00
1:14 PM,-5.8,-20.2,50,29.52,10.0,NW,10.4,25.3,N/A,,Clear,310,2014-01-25 19:14:00
1:33 PM,-5.8,-20.2,50,29.52,10.0,West,13.8,21.9,N/A,,Scattered Clouds,280,2014-01-25 19:33:00
1:53 PM,-5.8,-20.2,50,29.52,7.0,WNW,10.4,25.3,N/A,,Clear,300,2014-01-25 19:53:00
2:14 PM,-5.8,-20.2,50,29.52,10.0,West,11.5,21.9,N/A,,Clear,280,2014-01-25 20:14:00
2:33 PM,-5.8,-20.2,50,29.52,10.0,NW,11.5,18.4,N/A,,Clear,310,2014-01-25 20:33:00
2:53 PM,-5.8,-18.4,55,29.52,10.0,WNW,15.0,24.2,N/A,,Clear,290,2014-01-25 20:53:00
3:14 PM,-5.8,-18.4,55,29.52,10.0,WNW,10.4,19.6,N/A,,Clear,300,2014-01-25 21:14:00
3:33 PM,-5.8,-18.4,55,29.52,10.0,West,12.7,18.4,N/A,,Clear,280,2014-01-25 21:33:00
3:53 PM,-5.8,-18.4,55,29.52,10.0,West,11.5,19.6,N/A,,Clear,280,2014-01-25 21:53:00
4:14 PM,-7.6,-18.4,59,29.53,10.0,West,10.4,18.4,N/A,,Clear,280,2014-01-25 22:14:00
4:33 PM,-7.6,-18.4,59,29.53,10.0,West,12.7,18.4,N/A,,Clear,280,2014-01-25 22:33:00
4:53 PM,-7.6,-18.4,59,29.53,10.0,WNW,8.1,18.4,N/A,,Clear,290,2014-01-25 22:53:00
5:14 PM,-9.4,-18.4,65,29.54,10.0,West,6.9,-,N/A,,Scattered Clouds,270,2014-01-25 23:14:00
5:33 PM,-9.4,-18.4,65,29.54,10.0,West,6.9,-,N/A,,Scattered Clouds,260,2014-01-25 23:33:00
5:53 PM,-9.4,-18.4,65,29.54,10.0,West,8.1,-,N/A,,Scattered Clouds,260,2014-01-25 23:53:00
6:14 PM,-11.2,-18.4,70,29.54,10.0,West,6.9,-,N/A,,Scattered Clouds,260,2014-01-26 00:14:00
6:33 PM,-11.2,-18.4,70,29.53,10.0,West,5.8,-,N/A,,Clear,280,2014-01-26 00:33:00
6:53 PM,-11.2,-18.4,70,29.53,10.0,West,4.6,-,N/A,,Scattered Clouds,270,2014-01-26 00:53:00
7:14 PM,-11.2,-18.4,70,29.54,10.0,West,4.6,-,N/A,,Scattered Clouds,260,2014-01-26 01:14:00
7:34 PM,-11.2,-18.4,70,29.52,10.0,WNW,8.1,-,N/A,,Scattered Clouds,290,2014-01-26 01:34:00
7:53 PM,-11.2,-20.2,64,29.51,10.0,WNW,6.9,-,N/A,,Scattered Clouds,290,2014-01-26 01:53:00
8:13 PM,-11.2,-20.2,64,29.52,10.0,West,4.6,-,N/A,,Clear,280,2014-01-26 02:13:00
8:34 PM,-11.2,-20.2,64,29.52,10.0,West,3.5,-,N/A,,Scattered Clouds,280,2014-01-26 02:34:00
8:54 PM,-11.2,-20.2,64,29.51,10.0,West,5.8,-,N/A,,Clear,280,2014-01-26 02:54:00
9:13 PM,-11.2,-20.2,64,29.51,10.0,WNW,8.1,-,N/A,,Clear,290,2014-01-26 03:13:00
9:34 PM,-11.2,-20.2,64,29.50,10.0,WNW,6.9,-,N/A,,Clear,300,2014-01-26 03:34:00
9:54 PM,-9.4,-20.2,59,29.48,10.0,WNW,6.9,-,N/A,,Clear,300,2014-01-26 03:54:00
10:13 PM,-9.4,-20.2,59,29.47,10.0,NW,9.2,-,N/A,,Clear,320,2014-01-26 04:13:00
10:34 PM,-9.4,-20.2,59,29.47,10.0,Calm,Calm,-,N/A,,Scattered Clouds,0,2014-01-26 04:34:00
10:54 PM,-9.4,-20.2,59,29.47,10.0,WNW,4.6,-,N/A,,Overcast,290,2014-01-26 04:54:00
11:11 PM,-9.4,-20.2,59,29.46,10.0,Calm,Calm,-,N/A,,Mostly Cloudy,0,2014-01-26 05:11:00
11:33 PM,-9.4,-18.4,65,29.45,10.0,NW,4.6,-,N/A,,Mostly Cloudy,320,2014-01-26 05:33:00
11:54 PM,-9.4,-18.4,65,29.44,10.0,NNW,6.9,-,N/A,,Mostly Cloudy,330,2014-01-26 05:54:00